Time,TemperatureF,DewpointF,PressureIn,WindDirection,WindDirectionDegrees,WindSpeedMPH,WindSpeedGustMPH,Humidity,HourlyPrecipIn,Conditions,Clouds,dailyrainin,SoftwareType,DateUTC
2013-01-04 00:00:00,27.7,23.8,30.14,WSW,244,4.0,7.0,85,0.00,,,0.00,WeatherCatV1.10B1784,2013-01-04 05:00:00,
2013-01-04 00:01:00,27.7,23.8,30.14,WSW,248,2.0,7.0,85,0.00,,,0.00,WeatherCatV1.10B1784,2013-01-04 05:01:00,
2013-01-04 00:06:00,27.6,23.7,30.14,SW,219,3.0,6.0,85,0.00,,,0.00,WeatherCatV1.10B1784,2013-01-04 05:06:00,
2013-01-04 00:11:00,27.6,23.7,30.14,WSW,244,4.0,9.0,85,0.00,,,0.00,WeatherCatV1.10B1784,2013-01-04 05:11:00,
2013-01-04 00:16:00,27.5,23.6,30.14,West,271,4.0,7.0,85,0.00,,,0.00,WeatherCatV1.10B1784,2013-01-04 05:16:00,
2013-01-04 00:21:00,27.4,23.5,30.14,WSW,257,6.0,9.0,85,0.00,,,0.00,WeatherCatV1.10B1784,2013-01-04 05:21:00,
2013-01-04 00:26:00,27.2,23.3,30.14,SW,232,5.0,6.0,85,0.00,,,0.00,WeatherCatV1.10B1784,2013-01-04 05:26:00,
2013-01-04 00:31:00,27.1,23.2,30.14,WSW,255,4.0,8.0,85,0.00,,,0.00,WeatherCatV1.10B1784,2013-01-04 05:31:00,
2013-01-04 00:36:00,27.1,23.2,30.14,WSW,257,4.0,10.0,85,0.00,,,0.00,WeatherCatV1.10B1784,2013-01-04 05:36:00,
2013-01-04 00:41:00,27.1,23.2,30.14,West,263,4.0,7.0,85,0.00,,,0.00,WeatherCatV1.10B1784,2013-01-04 05:41:00,
2013-01-04 00:46:00,27.1,23.2,30.14,WSW,255,3.0,8.0,85,0.00,,,0.00,WeatherCatV1.10B1784,2013-01-04 05:46:00,
2013-01-04 00:51:00,27.2,23.3,30.14,WSW,252,3.0,5.0,85,0.00,,,0.00,WeatherCatV1.10B1784,2013-01-04 05:51:00,
2013-01-04 00:56:00,27.4,23.5,30.14,West,263,4.0,8.0,85,0.00,,,0.00,WeatherCatV1.10B1784,2013-01-04 05:56:00,
2013-01-04 01:01:00,27.5,23.6,30.14,WSW,248,8.0,8.0,85,0.00,,,0.00,WeatherCatV1.10B1784,2013-01-04 06:01:00,
2013-01-04 01:06:00,27.5,23.6,30.13,WSW,251,8.0,9.0,85,0.00,,,0.00,WeatherCatV1.10B1784,2013-01-04 06:06:00,
2013-01-04 01:11:00,27.5,23.6,30.13,WSW,238,7.0,9.0,85,0.00,,,0.00,WeatherCatV1.10B1784,2013-01-04 06:11:00,
2013-01-04 01:16:00,27.6,23.7,30.13,West,270,4.0,8.0,85,0.00,,,0.00,WeatherCatV1.10B1784,2013-01-04 06:16:00,
2013-01-04 01:21:00,27.6,23.7,30.13,WSW,258,5.0,8.0,85,0.00,,,0.00,WeatherCatV1.10B1784,2013-01-04 06:21:00,
2013-01-04 01:26:00,27.6,23.7,30.13,WSW,254,5.0,11.0,85,0.00,,,0.00,WeatherCatV1.10B1784,2013-01-04 06:26:00,
2013-01-04 01:31:00,27.6,23.7,30.13,West,259,6.0,8.0,85,0.00,,,0.00,WeatherCatV1.10B1784,2013-01-04 06:31:00,
2013-01-04 01:36:00,27.6,23.7,30.12,West,270,7.0,7.0,85,0.00,,,0.00,WeatherCatV1.10B1784,2013-01-04 06:36:00,
2013-01-04 01:41:00,27.6,23.7,30.12,West,265,10.0,11.0,85,0.00,,,0.00,WeatherCatV1.10B1784,2013-01-04 06:41:00,
2013-01-04 01:46:00,27.6,23.7,30.12,West,263,8.0,12.0,85,0.00,,,0.00,WeatherCatV1.10B1784,2013-01-04 06:46:00,
2013-01-04 01:51:00,27.5,23.6,30.12,WSW,238,6.0,10.0,85,0.00,,,0.00,WeatherCatV1.10B1784,2013-01-04 06:51:00,
2013-01-04 01:56:00,27.5,23.6,30.12,WNW,284,6.0,8.0,85,0.00,,,0.00,WeatherCatV1.10B1784,2013-01-04 06:56:00,
2013-01-04 02:01:00,27.6,23.4,30.12,West,263,8.0,8.0,84,0.00,,,0.00,WeatherCatV1.10B1784,2013-01-04 07:01:00,
2013-01-04 02:06:00,27.5,23.3,30.12,WSW,257,2.0,8.0,84,0.00,,,0.00,WeatherCatV1.10B1784,2013-01-04 07:06:00,
2013-01-04 02:11:00,27.5,23.3,30.12,WSW,258,7.0,10.0,84,0.00,,,0.00,WeatherCatV1.10B1784,2013-01-04 07:11:00,
2013-01-04 02:16:00,27.6,23.4,30.12,SW,214,4.0,8.0,84,0.00,,,0.00,WeatherCatV1.10B1784,2013-01-04 07:16:00,
2013-01-04 02:21:00,27.5,23.3,30.12,WSW,256,7.0,11.0,84,0.00,,,0.00,WeatherCatV1.10B1784,2013-01-04 07:21:00,
2013-01-04 02:26:00,27.6,23.4,30.12,WSW,252,7.0,14.0,84,0.00,,,0.00,WeatherCatV1.10B1784,2013-01-04 07:26:00,
2013-01-04 02:31:00,27.6,23.4,30.12,WSW,250,5.0,13.0,84,0.00,,,0.00,WeatherCatV1.10B1784,2013-01-04 07:31:00,
2013-01-04 02:36:00,27.6,23.1,30.12,WSW,245,9.0,13.0,83,0.00,,,0.00,WeatherCatV1.10B1784,2013-01-04 07:36:00,
2013-01-04 02:41:00,27.6,23.1,30.12,WSW,249,5.0,12.0,83,0.00,,,0.00,WeatherCatV1.10B1784,2013-01-04 07:41:00,
2013-01-04 02:46:00,27.6,23.1,30.12,West,274,4.0,12.0,83,0.00,,,0.00,WeatherCatV1.10B1784,2013-01-04 07:46:00,
2013-01-04 02:51:00,27.6,23.1,30.11,WSW,251,8.0,11.0,83,0.00,,,0.00,WeatherCatV1.10B1784,2013-01-04 07:51:00,
2013-01-04 02:56:00,27.6,23.1,30.11,South,171,3.0,11.0,83,0.00,,,0.00,WeatherCatV1.10B1784,2013-01-04 07:56:00,
2013-01-04 03:01:00,27.6,22.8,30.11,WSW,254,7.0,15.0,82,0.00,,,0.00,WeatherCatV1.10B1784,2013-01-04 08:01:00,
2013-01-04 03:06:00,27.7,22.9,30.11,WSW,252,10.0,13.0,82,0.00,,,0.00,WeatherCatV1.10B1784,2013-01-04 08:06:00,
2013-01-04 03:11:00,27.7,22.9,30.11,WSW,250,8.0,8.0,82,0.00,,,0.00,WeatherCatV1.10B1784,2013-01-04 08:11:00,
2013-01-04 03:16:00,27.7,22.9,30.11,West,261,10.0,14.0,82,0.00,,,0.00,WeatherCatV1.10B1784,2013-01-04 08:16:00,
2013-01-04 03:21:00,27.7,22.9,30.11,West,261,8.0,13.0,82,0.00,,,0.00,WeatherCatV1.10B1784,2013-01-04 08:21:00,
2013-01-04 03:26:00,27.6,22.8,30.11,West,261,14.0,14.0,82,0.00,,,0.00,WeatherCatV1.10B1784,2013-01-04 08:26:00,
2013-01-04 03:31:00,27.6,22.8,30.11,WSW,252,10.0,12.0,82,0.00,,,0.00,WeatherCatV1.10B1784,2013-01-04 08:31:00,
2013-01-04 03:36:00,27.6,22.8,30.11,SW,226,8.0,8.0,82,0.00,,,0.00,WeatherCatV1.10B1784,2013-01-04 08:36:00,
2013-01-04 03:41:00,27.5,22.7,30.11,WSW,251,9.0,10.0,82,0.00,,,0.00,WeatherCatV1.10B1784,2013-01-04 08:41:00,
2013-01-04 03:46:00,27.5,22.7,30.11,WNW,291,8.0,11.0,82,0.00,,,0.00,WeatherCatV1.10B1784,2013-01-04 08:46:00,
2013-01-04 03:51:00,27.4,22.6,30.11,WSW,254,8.0,17.0,82,0.00,,,0.00,WeatherCatV1.10B1784,2013-01-04 08:51:00,
2013-01-04 03:56:00,27.4,22.6,30.10,WSW,240,7.0,13.0,82,0.00,,,0.00,WeatherCatV1.10B1784,2013-01-04 08:56:00,
2013-01-04 04:01:00,27.4,22.6,30.10,West,263,7.0,14.0,82,0.00,,,0.00,WeatherCatV1.10B1784,2013-01-04 09:01:00,
2013-01-04 04:06:00,27.4,22.6,30.10,SW,224,3.0,12.0,82,0.00,,,0.00,WeatherCatV1.10B1784,2013-01-04 09:06:00,
2013-01-04 04:11:00,27.4,22.4,30.10,WSW,248,17.0,19.0,81,0.00,,,0.00,WeatherCatV1.10B1784,2013-01-04 09:11:00,
2013-01-04 04:16:00,27.4,22.4,30.10,West,260,4.0,13.0,81,0.00,,,0.00,WeatherCatV1.10B1784,2013-01-04 09:16:00,
2013-01-04 04:21:00,27.4,22.6,30.10,West,263,10.0,12.0,82,0.00,,,0.00,WeatherCatV1.10B1784,2013-01-04 09:21:00,
2013-01-04 04:26:00,27.4,22.4,30.10,WNW,287,11.0,20.0,81,0.00,,,0.00,WeatherCatV1.10B1784,2013-01-04 09:26:00,
2013-01-04 04:31:00,27.4,22.4,30.10,WSW,257,8.0,16.0,81,0.00,,,0.00,WeatherCatV1.10B1784,2013-01-04 09:31:00,
2013-01-04 04:36:00,27.3,22.3,30.10,WSW,248,7.0,18.0,81,0.00,,,0.00,WeatherCatV1.10B1784,2013-01-04 09:36:00,
2013-01-04 04:41:00,27.3,22.3,30.10,WNW,287,9.0,14.0,81,0.00,,,0.00,WeatherCatV1.10B1784,2013-01-04 09:41:00,
2013-01-04 04:46:00,27.2,22.4,30.10,WSW,257,8.0,8.0,82,0.00,,,0.00,WeatherCatV1.10B1784,2013-01-04 09:46:00,
2013-01-04 04:51:00,27.1,22.4,30.10,WSW,252,6.0,10.0,82,0.00,,,0.00,WeatherCatV1.10B1784,2013-01-04 09:51:00,
2013-01-04 04:56:00,27.1,22.4,30.09,WSW,253,5.0,9.0,82,0.00,,,0.00,WeatherCatV1.10B1784,2013-01-04 09:56:00,
2013-01-04 05:01:00,27.0,22.3,30.09,West,272,10.0,13.0,82,0.00,,,0.00,WeatherCatV1.10B1784,2013-01-04 10:01:00,
2013-01-04 05:06:00,26.9,22.2,30.09,West,259,12.0,12.0,82,0.00,,,0.00,WeatherCatV1.10B1784,2013-01-04 10:06:00,
2013-01-04 05:11:00,26.8,22.1,30.09,West,274,9.0,11.0,82,0.00,,,0.00,WeatherCatV1.10B1784,2013-01-04 10:11:00,
2013-01-04 05:16:00,26.7,22.0,30.09,West,261,7.0,12.0,82,0.00,,,0.00,WeatherCatV1.10B1784,2013-01-04 10:16:00,
2013-01-04 05:21:00,26.6,21.9,30.09,WSW,238,8.0,14.0,82,0.00,,,0.00,WeatherCatV1.10B1784,2013-01-04 10:21:00,
2013-01-04 05:26:00,26.5,21.8,30.09,West,264,16.0,17.0,82,0.00,,,0.00,WeatherCatV1.10B1784,2013-01-04 10:26:00,
2013-01-04 05:31:00,26.4,21.7,30.09,West,263,13.0,20.0,82,0.00,,,0.00,WeatherCatV1.10B1784,2013-01-04 10:31:00,
2013-01-04 05:36:00,26.3,21.6,30.09,West,259,8.0,17.0,82,0.00,,,0.00,WeatherCatV1.10B1784,2013-01-04 10:36:00,
2013-01-04 05:41:00,26.2,21.8,30.09,WSW,254,12.0,16.0,83,0.00,,,0.00,WeatherCatV1.10B1784,2013-01-04 10:41:00,
2013-01-04 05:46:00,26.1,21.4,30.09,WSW,257,5.0,17.0,82,0.00,,,0.00,WeatherCatV1.10B1784,2013-01-04 10:46:00,
2013-01-04 05:51:00,26.1,21.4,30.09,West,263,10.0,16.0,82,0.00,,,0.00,WeatherCatV1.10B1784,2013-01-04 10:51:00,
2013-01-04 05:56:00,26.0,21.3,30.09,WNW,283,11.0,16.0,82,0.00,,,0.00,WeatherCatV1.10B1784,2013-01-04 10:56:00,
2013-01-04 06:01:00,25.8,21.4,30.09,West,265,10.0,14.0,83,0.00,,,0.00,WeatherCatV1.10B1784,2013-01-04 11:01:00,
2013-01-04 06:06:00,25.5,21.1,30.09,WNW,283,13.0,19.0,83,0.00,,,0.00,WeatherCatV1.10B1784,2013-01-04 11:06:00,
2013-01-04 06:11:00,25.3,20.6,30.09,WSW,240,10.0,16.0,82,0.00,,,0.00,WeatherCatV1.10B1784,2013-01-04 11:11:00,
2013-01-04 06:16:00,25.1,20.4,30.09,West,259,7.0,9.0,82,0.00,,,0.00,WeatherCatV1.10B1784,2013-01-04 11:16:00,
2013-01-04 06:21:00,24.9,20.5,30.09,West,267,11.0,18.0,83,0.00,,,0.00,WeatherCatV1.10B1784,2013-01-04 11:21:00,
2013-01-04 06:26:00,24.6,20.2,30.09,WSW,243,7.0,10.0,83,0.00,,,0.00,WeatherCatV1.10B1784,2013-01-04 11:26:00,
2013-01-04 06:31:00,24.3,19.9,30.09,WNW,289,4.0,12.0,83,0.00,,,0.00,WeatherCatV1.10B1784,2013-01-04 11:31:00,
2013-01-04 06:36:00,24.0,19.6,30.08,WSW,257,11.0,12.0,83,0.00,,,0.00,WeatherCatV1.10B1784,2013-01-04 11:36:00,
2013-01-04 06:41:00,23.8,19.4,30.09,WSW,246,9.0,16.0,83,0.00,,,0.00,WeatherCatV1.10B1784,2013-01-04 11:41:00,
2013-01-04 06:46:00,23.6,19.5,30.09,WSW,247,7.0,12.0,84,0.00,,,0.00,WeatherCatV1.10B1784,2013-01-04 11:46:00,
2013-01-04 06:51:00,23.4,19.3,30.09,SW,221,4.0,12.0,84,0.00,,,0.00,WeatherCatV1.10B1784,2013-01-04 11:51:00,
2013-01-04 06:56:00,23.2,19.1,30.09,WSW,248,9.0,15.0,84,0.00,,,0.00,WeatherCatV1.10B1784,2013-01-04 11:56:00,
2013-01-04 07:01:00,23.0,19.2,30.09,WSW,238,4.0,11.0,85,0.00,,,0.00,WeatherCatV1.10B1784,2013-01-04 12:01:00,
2013-01-04 07:06:00,22.7,18.9,30.09,WSW,246,7.0,12.0,85,0.00,,,0.00,WeatherCatV1.10B1784,2013-01-04 12:06:00,
2013-01-04 07:11:00,22.6,18.8,30.09,WSW,252,4.0,10.0,85,0.00,,,0.00,WeatherCatV1.10B1784,2013-01-04 12:11:00,
2013-01-04 07:16:00,22.5,18.7,30.09,SW,233,10.0,16.0,85,0.00,,,0.00,WeatherCatV1.10B1784,2013-01-04 12:16:00,
2013-01-04 07:21:00,22.4,18.3,30.09,West,265,8.0,14.0,84,0.00,,,0.00,WeatherCatV1.10B1784,2013-01-04 12:21:00,
2013-01-04 07:26:00,22.3,18.2,30.10,SSW,213,4.0,13.0,84,0.00,,,0.00,WeatherCatV1.10B1784,2013-01-04 12:26:00,
2013-01-04 07:31:00,22.2,18.1,30.09,SW,233,11.0,16.0,84,0.00,,,0.00,WeatherCatV1.10B1784,2013-01-04 12:31:00,
2013-01-04 07:36:00,22.1,17.7,30.10,WSW,250,7.0,13.0,83,0.00,,,0.00,WeatherCatV1.10B1784,2013-01-04 12:36:00,
2013-01-04 07:41:00,21.9,17.5,30.10,WSW,256,8.0,15.0,83,0.00,,,0.00,WeatherCatV1.10B1784,2013-01-04 12:41:00,
2013-01-04 07:46:00,21.8,17.4,30.10,West,265,11.0,14.0,83,0.00,,,0.00,WeatherCatV1.10B1784,2013-01-04 12:46:00,
2013-01-04 07:51:00,21.7,17.3,30.10,WSW,252,11.0,16.0,83,0.00,,,0.00,WeatherCatV1.10B1784,2013-01-04 12:51:00,
2013-01-04 07:56:00,21.6,17.3,30.10,West,269,11.0,16.0,83,0.00,,,0.00,WeatherCatV1.10B1784,2013-01-04 12:56:00,
2013-01-04 08:01:00,21.4,17.1,30.10,WSW,242,6.0,16.0,83,0.00,,,0.00,WeatherCatV1.10B1784,2013-01-04 13:01:00,
2013-01-04 08:06:00,21.2,16.9,30.10,WSW,250,7.0,10.0,83,0.00,,,0.00,WeatherCatV1.10B1784,2013-01-04 13:06:00,
2013-01-04 08:11:00,21.1,17.0,30.10,WNW,284,8.0,12.0,84,0.00,,,0.00,WeatherCatV1.10B1784,2013-01-04 13:11:00,
2013-01-04 08:16:00,20.9,16.8,30.10,WSW,242,10.0,20.0,84,0.00,,,0.00,WeatherCatV1.10B1784,2013-01-04 13:16:00,
2013-01-04 08:21:00,20.9,16.8,30.10,WSW,248,6.0,12.0,84,0.00,,,0.00,WeatherCatV1.10B1784,2013-01-04 13:21:00,
2013-01-04 08:26:00,20.7,16.6,30.10,West,270,9.0,15.0,84,0.00,,,0.00,WeatherCatV1.10B1784,2013-01-04 13:26:00,
2013-01-04 08:31:00,20.7,16.6,30.10,West,260,9.0,11.0,84,0.00,,,0.00,WeatherCatV1.10B1784,2013-01-04 13:31:00,
2013-01-04 08:36:00,20.7,16.6,30.10,WSW,252,7.0,14.0,84,0.00,,,0.00,WeatherCatV1.10B1784,2013-01-04 13:36:00,
2013-01-04 08:41:00,20.7,16.6,30.10,West,259,8.0,17.0,84,0.00,,,0.00,WeatherCatV1.10B1784,2013-01-04 13:41:00,
2013-01-04 08:46:00,20.7,16.6,30.10,SW,226,6.0,12.0,84,0.00,,,0.00,WeatherCatV1.10B1784,2013-01-04 13:46:00,
2013-01-04 08:51:00,20.8,16.7,30.10,WSW,247,5.0,16.0,84,0.00,,,0.00,WeatherCatV1.10B1784,2013-01-04 13:51:00,
2013-01-04 08:56:00,20.8,16.7,30.10,WSW,255,11.0,11.0,84,0.00,,,0.00,WeatherCatV1.10B1784,2013-01-04 13:56:00,
2013-01-04 09:01:00,20.7,16.4,30.10,SW,234,12.0,18.0,83,0.00,,,0.00,WeatherCatV1.10B1784,2013-01-04 14:01:00,
2013-01-04 09:06:00,20.8,16.5,30.10,WSW,247,4.0,11.0,83,0.00,,,0.00,WeatherCatV1.10B1784,2013-01-04 14:06:00,
2013-01-04 09:11:00,20.8,16.5,30.10,WSW,245,6.0,9.0,83,0.00,,,0.00,WeatherCatV1.10B1784,2013-01-04 14:11:00,
2013-01-04 09:16:00,20.9,16.6,30.10,WSW,255,7.0,11.0,83,0.00,,,0.00,WeatherCatV1.10B1784,2013-01-04 14:16:00,
2013-01-04 09:21:00,20.9,16.6,30.10,WSW,255,7.0,15.0,83,0.00,,,0.00,WeatherCatV1.10B1784,2013-01-04 14:21:00,
2013-01-04 09:26:00,21.0,16.7,30.11,West,279,7.0,15.0,83,0.00,,,0.00,WeatherCatV1.10B1784,2013-01-04 14:26:00,
2013-01-04 09:31:00,21.0,16.4,30.11,WSW,257,9.0,14.0,82,0.00,,,0.00,WeatherCatV1.10B1784,2013-01-04 14:31:00,
2013-01-04 09:36:00,21.2,16.6,30.11,West,272,6.0,11.0,82,0.00,,,0.00,WeatherCatV1.10B1784,2013-01-04 14:36:00,
2013-01-04 09:41:00,21.4,16.5,30.11,WSW,254,9.0,12.0,81,0.00,,,0.00,WeatherCatV1.10B1784,2013-01-04 14:41:00,
2013-01-04 09:46:00,21.5,16.6,30.11,West,271,7.0,11.0,81,0.00,,,0.00,WeatherCatV1.10B1784,2013-01-04 14:46:00,
2013-01-04 09:51:00,21.5,16.3,30.11,SW,221,10.0,15.0,80,0.00,,,0.00,WeatherCatV1.10B1784,2013-01-04 14:51:00,
2013-01-04 09:56:00,21.6,16.4,30.11,West,269,12.0,14.0,80,0.00,,,0.00,WeatherCatV1.10B1784,2013-01-04 14:56:00,
2013-01-04 10:01:00,21.7,16.5,30.11,WSW,249,8.0,17.0,80,0.00,,,0.00,WeatherCatV1.10B1784,2013-01-04 15:01:00,
2013-01-04 10:06:00,21.9,16.7,30.11,West,275,8.0,13.0,80,0.00,,,0.00,WeatherCatV1.10B1784,2013-01-04 15:06:00,
2013-01-04 10:11:00,22.1,16.6,30.11,West,263,9.0,13.0,79,0.00,,,0.00,WeatherCatV1.10B1784,2013-01-04 15:11:00,
2013-01-04 10:16:00,22.1,16.6,30.11,WSW,257,11.0,15.0,79,0.00,,,0.00,WeatherCatV1.10B1784,2013-01-04 15:16:00,
2013-01-04 10:21:00,22.3,16.8,30.11,WSW,257,8.0,13.0,79,0.00,,,0.00,WeatherCatV1.10B1784,2013-01-04 15:21:00,
2013-01-04 10:26:00,22.5,17.0,30.11,West,263,7.0,14.0,79,0.00,,,0.00,WeatherCatV1.10B1784,2013-01-04 15:26:00,
2013-01-04 10:31:00,22.6,16.8,30.11,WSW,258,12.0,14.0,78,0.00,,,0.00,WeatherCatV1.10B1784,2013-01-04 15:31:00,
2013-01-04 10:36:00,22.7,16.9,30.11,West,271,11.0,17.0,78,0.00,,,0.00,WeatherCatV1.10B1784,2013-01-04 15:36:00,
2013-01-04 10:41:00,22.9,17.1,30.11,WSW,255,7.0,16.0,78,0.00,,,0.00,WeatherCatV1.10B1784,2013-01-04 15:41:00,
2013-01-04 10:46:00,23.1,17.0,30.11,WSW,248,15.0,18.0,77,0.00,,,0.00,WeatherCatV1.10B1784,2013-01-04 15:46:00,
2013-01-04 10:51:00,23.3,17.2,30.11,WSW,246,10.0,15.0,77,0.00,,,0.00,WeatherCatV1.10B1784,2013-01-04 15:51:00,
2013-01-04 10:56:00,23.3,17.2,30.10,WSW,238,11.0,12.0,77,0.00,,,0.00,WeatherCatV1.10B1784,2013-01-04 15:56:00,
2013-01-04 11:01:00,23.3,17.2,30.10,WSW,248,7.0,16.0,77,0.00,,,0.00,WeatherCatV1.10B1784,2013-01-04 16:01:00,
2013-01-04 11:06:00,23.3,16.9,30.10,WSW,245,7.0,21.0,76,0.00,,,0.00,WeatherCatV1.10B1784,2013-01-04 16:06:00,
2013-01-04 11:11:00,23.3,16.9,30.11,West,263,18.0,22.0,76,0.00,,,0.00,WeatherCatV1.10B1784,2013-01-04 16:11:00,
2013-01-04 11:16:00,23.1,16.7,30.10,West,271,14.0,22.0,76,0.00,,,0.00,WeatherCatV1.10B1784,2013-01-04 16:16:00,
2013-01-04 11:21:00,23.1,16.7,30.10,WSW,242,14.0,18.0,76,0.00,,,0.00,WeatherCatV1.10B1784,2013-01-04 16:21:00,
2013-01-04 11:26:00,22.9,16.8,30.10,West,269,9.0,20.0,77,0.00,,,0.00,WeatherCatV1.10B1784,2013-01-04 16:26:00,
2013-01-04 11:31:00,23.0,17.2,30.09,West,281,8.0,17.0,78,0.00,,,0.00,WeatherCatV1.10B1784,2013-01-04 16:31:00,
2013-01-04 11:36:00,23.3,17.5,30.09,WSW,255,10.0,10.0,78,0.00,,,0.00,WeatherCatV1.10B1784,2013-01-04 16:36:00,
2013-01-04 11:41:00,23.4,17.6,30.08,WSW,252,14.0,18.0,78,0.00,,,0.00,WeatherCatV1.10B1784,2013-01-04 16:41:00,
2013-01-04 11:46:00,23.4,17.6,30.09,West,269,12.0,15.0,78,0.00,,,0.00,WeatherCatV1.10B1784,2013-01-04 16:46:00,
2013-01-04 11:51:00,23.4,17.9,30.09,WSW,253,7.0,13.0,79,0.00,,,0.00,WeatherCatV1.10B1784,2013-01-04 16:51:00,
2013-01-04 11:56:00,23.5,18.0,30.09,WNW,293,10.0,19.0,79,0.00,,,0.00,WeatherCatV1.10B1784,2013-01-04 16:56:00,
2013-01-04 12:01:00,23.8,18.3,30.09,West,279,16.0,16.0,79,0.00,,,0.00,WeatherCatV1.10B1784,2013-01-04 17:01:00,
2013-01-04 12:06:00,23.9,18.1,30.08,WNW,296,7.0,17.0,78,0.00,,,0.00,WeatherCatV1.10B1784,2013-01-04 17:06:00,
2013-01-04 12:11:00,24.3,18.4,30.08,West,268,10.0,14.0,78,0.00,,,0.00,WeatherCatV1.10B1784,2013-01-04 17:11:00,
2013-01-04 12:16:00,24.5,18.6,30.08,West,267,7.0,15.0,78,0.00,,,0.00,WeatherCatV1.10B1784,2013-01-04 17:16:00,
2013-01-04 12:21:00,24.8,18.6,30.08,West,266,10.0,17.0,77,0.00,,,0.00,WeatherCatV1.10B1784,2013-01-04 17:21:00,
2013-01-04 12:26:00,24.8,18.9,30.08,WSW,252,11.0,18.0,78,0.00,,,0.00,WeatherCatV1.10B1784,2013-01-04 17:26:00,
2013-01-04 12:31:00,25.1,18.9,30.08,West,261,13.0,13.0,77,0.00,,,0.00,WeatherCatV1.10B1784,2013-01-04 17:31:00,
2013-01-04 12:36:00,25.4,19.2,30.07,West,261,5.0,12.0,77,0.00,,,0.00,WeatherCatV1.10B1784,2013-01-04 17:36:00,
2013-01-04 12:41:00,25.8,19.6,30.06,WSW,255,8.0,12.0,77,0.00,,,0.00,WeatherCatV1.10B1784,2013-01-04 17:41:00,
2013-01-04 12:46:00,25.8,19.3,30.06,West,275,7.0,20.0,76,0.00,,,0.00,WeatherCatV1.10B1784,2013-01-04 17:46:00,
2013-01-04 12:51:00,25.7,19.5,30.06,West,270,5.0,17.0,77,0.00,,,0.00,WeatherCatV1.10B1784,2013-01-04 17:51:00,
2013-01-04 12:56:00,25.9,19.4,30.06,West,273,16.0,16.0,76,0.00,,,0.00,WeatherCatV1.10B1784,2013-01-04 17:56:00,
2013-01-04 13:01:00,26.1,19.6,30.06,West,266,7.0,19.0,76,0.00,,,0.00,WeatherCatV1.10B1784,2013-01-04 18:01:00,
2013-01-04 13:06:00,26.1,19.9,30.06,West,281,11.0,12.0,77,0.00,,,0.00,WeatherCatV1.10B1784,2013-01-04 18:06:00,
2013-01-04 13:11:00,26.3,19.8,30.06,West,269,19.0,19.0,76,0.00,,,0.00,WeatherCatV1.10B1784,2013-01-04 18:11:00,
2013-01-04 13:16:00,26.3,19.8,30.05,West,261,9.0,18.0,76,0.00,,,0.00,WeatherCatV1.10B1784,2013-01-04 18:16:00,
2013-01-04 13:21:00,26.6,20.1,30.05,WSW,255,14.0,15.0,76,0.00,,,0.00,WeatherCatV1.10B1784,2013-01-04 18:21:00,
2013-01-04 13:26:00,26.7,20.2,30.05,WSW,244,11.0,12.0,76,0.00,,,0.00,WeatherCatV1.10B1784,2013-01-04 18:26:00,
2013-01-04 13:31:00,26.9,20.1,30.05,West,269,14.0,19.0,75,0.00,,,0.00,WeatherCatV1.10B1784,2013-01-04 18:31:00,
2013-01-04 13:36:00,26.8,20.0,30.05,WSW,250,10.0,19.0,75,0.00,,,0.00,WeatherCatV1.10B1784,2013-01-04 18:36:00,
2013-01-04 13:41:00,26.8,20.0,30.04,SW,229,13.0,17.0,75,0.00,,,0.00,WeatherCatV1.10B1784,2013-01-04 18:41:00,
2013-01-04 13:46:00,26.9,20.1,30.04,WNW,285,4.0,16.0,75,0.00,,,0.00,WeatherCatV1.10B1784,2013-01-04 18:46:00,
2013-01-04 13:51:00,27.3,20.1,30.04,SW,227,11.0,14.0,74,0.00,,,0.00,WeatherCatV1.10B1784,2013-01-04 18:51:00,
2013-01-04 13:56:00,27.5,20.3,30.04,South,174,6.0,12.0,74,0.00,,,0.00,WeatherCatV1.10B1784,2013-01-04 18:56:00,
2013-01-04 14:01:00,27.8,20.3,30.04,WSW,247,13.0,13.0,73,0.00,,,0.00,WeatherCatV1.10B1784,2013-01-04 19:01:00,
2013-01-04 14:02:00,27.8,20.3,30.03,WSW,246,14.0,15.0,73,0.00,,,0.00,WeatherCatV1.10B1784,2013-01-04 19:02:00,
2013-01-04 14:07:00,28.1,20.6,30.03,SW,221,4.0,11.0,73,0.00,,,0.00,WeatherCatV1.10B1784,2013-01-04 19:07:00,
2013-01-04 14:12:00,28.3,20.1,30.03,West,279,8.0,12.0,71,0.00,,,0.00,WeatherCatV1.10B1784,2013-01-04 19:12:00,
2013-01-04 14:17:00,28.3,20.1,30.03,West,281,5.0,12.0,71,0.00,,,0.00,WeatherCatV1.10B1784,2013-01-04 19:17:00,
2013-01-04 14:22:00,28.5,20.3,30.03,WSW,254,16.0,16.0,71,0.00,,,0.00,WeatherCatV1.10B1784,2013-01-04 19:22:00,
2013-01-04 14:27:00,28.6,20.1,30.03,WSW,249,8.0,13.0,70,0.00,,,0.00,WeatherCatV1.10B1784,2013-01-04 19:27:00,
2013-01-04 14:32:00,28.5,20.0,30.03,WSW,249,4.0,15.0,70,0.00,,,0.00,WeatherCatV1.10B1784,2013-01-04 19:32:00,
2013-01-04 14:37:00,28.5,19.6,30.03,WSW,257,11.0,16.0,69,0.00,,,0.00,WeatherCatV1.10B1784,2013-01-04 19:37:00,
2013-01-04 14:42:00,28.5,19.6,30.03,West,270,8.0,17.0,69,0.00,,,0.00,WeatherCatV1.10B1784,2013-01-04 19:42:00,
2013-01-04 14:47:00,28.6,19.7,30.03,West,279,10.0,11.0,69,0.00,,,0.00,WeatherCatV1.10B1784,2013-01-04 19:47:00,
2013-01-04 14:52:00,28.9,20.0,30.03,WSW,244,4.0,14.0,69,0.00,,,0.00,WeatherCatV1.10B1784,2013-01-04 19:52:00,
2013-01-04 14:57:00,28.6,19.4,30.04,West,278,10.0,18.0,68,0.00,,,0.00,WeatherCatV1.10B1784,2013-01-04 19:57:00,
2013-01-04 15:02:00,28.3,19.5,30.04,WSW,253,9.0,15.0,69,0.00,,,0.00,WeatherCatV1.10B1784,2013-01-04 20:02:00,
2013-01-04 15:07:00,28.5,19.6,30.04,WSW,254,10.0,12.0,69,0.00,,,0.00,WeatherCatV1.10B1784,2013-01-04 20:07:00,
2013-01-04 15:12:00,28.3,19.1,30.04,WSW,257,10.0,22.0,68,0.00,,,0.00,WeatherCatV1.10B1784,2013-01-04 20:12:00,
2013-01-04 15:17:00,28.2,19.4,30.03,West,259,12.0,23.0,69,0.00,,,0.00,WeatherCatV1.10B1784,2013-01-04 20:17:00,
2013-01-04 15:22:00,28.3,19.5,30.04,WSW,258,14.0,19.0,69,0.00,,,0.00,WeatherCatV1.10B1784,2013-01-04 20:22:00,
2013-01-04 15:27:00,28.3,19.1,30.04,WSW,248,14.0,18.0,68,0.00,,,0.00,WeatherCatV1.10B1784,2013-01-04 20:27:00,
2013-01-04 15:32:00,28.2,19.0,30.04,West,259,14.0,17.0,68,0.00,,,0.00,WeatherCatV1.10B1784,2013-01-04 20:32:00,
2013-01-04 15:37:00,28.4,19.5,30.04,West,261,9.0,13.0,69,0.00,,,0.00,WeatherCatV1.10B1784,2013-01-04 20:37:00,
2013-01-04 15:42:00,28.5,19.3,30.04,WSW,238,9.0,17.0,68,0.00,,,0.00,WeatherCatV1.10B1784,2013-01-04 20:42:00,
2013-01-04 15:47:00,28.2,19.0,30.05,SW,233,11.0,21.0,68,0.00,,,0.00,WeatherCatV1.10B1784,2013-01-04 20:47:00,
2013-01-04 15:52:00,28.0,19.2,30.05,West,263,8.0,12.0,69,0.00,,,0.00,WeatherCatV1.10B1784,2013-01-04 20:52:00,
2013-01-04 15:57:00,27.9,19.1,30.05,WNW,294,8.0,17.0,69,0.00,,,0.00,WeatherCatV1.10B1784,2013-01-04 20:57:00,
2013-01-04 16:02:00,27.6,19.1,30.04,WSW,253,9.0,14.0,70,0.00,,,0.00,WeatherCatV1.10B1784,2013-01-04 21:02:00,
2013-01-04 16:07:00,27.5,19.0,30.05,West,271,10.0,10.0,70,0.00,,,0.00,WeatherCatV1.10B1784,2013-01-04 21:07:00,
2013-01-04 16:12:00,27.4,18.9,30.05,WSW,249,7.0,15.0,70,0.00,,,0.00,WeatherCatV1.10B1784,2013-01-04 21:12:00,
2013-01-04 16:17:00,27.2,18.7,30.05,West,271,11.0,19.0,70,0.00,,,0.00,WeatherCatV1.10B1784,2013-01-04 21:17:00,
2013-01-04 16:22:00,27.1,19.0,30.05,WSW,251,7.0,10.0,71,0.00,,,0.00,WeatherCatV1.10B1784,2013-01-04 21:22:00,
2013-01-04 16:27:00,27.0,18.9,30.05,WSW,253,14.0,18.0,71,0.00,,,0.00,WeatherCatV1.10B1784,2013-01-04 21:27:00,
2013-01-04 16:32:00,27.2,19.1,30.05,West,269,10.0,20.0,71,0.00,,,0.00,WeatherCatV1.10B1784,2013-01-04 21:32:00,
2013-01-04 16:37:00,27.1,19.0,30.05,WNW,286,14.0,16.0,71,0.00,,,0.00,WeatherCatV1.10B1784,2013-01-04 21:37:00,
2013-01-04 16:42:00,27.0,18.9,30.05,WNW,300,6.0,15.0,71,0.00,,,0.00,WeatherCatV1.10B1784,2013-01-04 21:42:00,
2013-01-04 16:47:00,26.9,18.8,30.06,WSW,252,7.0,14.0,71,0.00,,,0.00,WeatherCatV1.10B1784,2013-01-04 21:47:00,
2013-01-04 16:52:00,26.8,19.0,30.06,West,259,5.0,11.0,72,0.00,,,0.00,WeatherCatV1.10B1784,2013-01-04 21:52:00,
2013-01-04 16:57:00,26.7,18.9,30.06,WSW,255,7.0,13.0,72,0.00,,,0.00,WeatherCatV1.10B1784,2013-01-04 21:57:00,
2013-01-04 17:02:00,26.5,19.0,30.07,WSW,256,7.0,10.0,73,0.00,,,0.00,WeatherCatV1.10B1784,2013-01-04 22:02:00,
2013-01-04 17:07:00,26.4,18.9,30.07,WSW,252,9.0,10.0,73,0.00,,,0.00,WeatherCatV1.10B1784,2013-01-04 22:07:00,
2013-01-04 17:12:00,26.3,18.8,30.07,WSW,257,10.0,14.0,73,0.00,,,0.00,WeatherCatV1.10B1784,2013-01-04 22:12:00,
2013-01-04 17:17:00,26.2,18.7,30.07,WSW,243,12.0,17.0,73,0.00,,,0.00,WeatherCatV1.10B1784,2013-01-04 22:17:00,
2013-01-04 17:22:00,26.2,19.1,30.07,WSW,240,12.0,15.0,74,0.00,,,0.00,WeatherCatV1.10B1784,2013-01-04 22:22:00,
2013-01-04 17:27:00,26.1,19.0,30.07,WSW,253,7.0,8.0,74,0.00,,,0.00,WeatherCatV1.10B1784,2013-01-04 22:27:00,
2013-01-04 17:32:00,25.8,18.7,30.08,West,260,6.0,8.0,74,0.00,,,0.00,WeatherCatV1.10B1784,2013-01-04 22:32:00,
2013-01-04 17:37:00,25.6,18.8,30.08,WSW,253,14.0,15.0,75,0.00,,,0.00,WeatherCatV1.10B1784,2013-01-04 22:37:00,
2013-01-04 17:42:00,25.6,18.8,30.08,WSW,258,9.0,15.0,75,0.00,,,0.00,WeatherCatV1.10B1784,2013-01-04 22:42:00,
2013-01-04 17:47:00,25.5,18.7,30.08,WSW,257,15.0,15.0,75,0.00,,,0.00,WeatherCatV1.10B1784,2013-01-04 22:47:00,
2013-01-04 17:52:00,25.4,18.9,30.08,West,267,6.0,12.0,76,0.00,,,0.00,WeatherCatV1.10B1784,2013-01-04 22:52:00,
2013-01-04 17:57:00,25.4,18.9,30.09,West,260,5.0,11.0,76,0.00,,,0.00,WeatherCatV1.10B1784,2013-01-04 22:57:00,
2013-01-04 18:02:00,25.3,18.8,30.09,WSW,250,9.0,16.0,76,0.00,,,0.00,WeatherCatV1.10B1784,2013-01-04 23:02:00,
2013-01-04 18:07:00,25.2,18.7,30.09,West,259,13.0,18.0,76,0.00,,,0.00,WeatherCatV1.10B1784,2013-01-04 23:07:00,
2013-01-04 18:12:00,25.2,18.7,30.10,WNW,296,12.0,12.0,76,0.00,,,0.00,WeatherCatV1.10B1784,2013-01-04 23:12:00,
2013-01-04 18:17:00,25.1,18.9,30.10,West,271,12.0,12.0,77,0.00,,,0.00,WeatherCatV1.10B1784,2013-01-04 23:17:00,
2013-01-04 18:22:00,25.1,18.9,30.10,WSW,245,12.0,13.0,77,0.00,,,0.00,WeatherCatV1.10B1784,2013-01-04 23:22:00,
2013-01-04 18:27:00,25.1,18.9,30.10,West,267,11.0,16.0,77,0.00,,,0.00,WeatherCatV1.10B1784,2013-01-04 23:27:00,
2013-01-04 18:32:00,25.0,18.8,30.10,West,272,8.0,8.0,77,0.00,,,0.00,WeatherCatV1.10B1784,2013-01-04 23:32:00,
2013-01-04 18:37:00,24.9,19.0,30.10,West,275,6.0,15.0,78,0.00,,,0.00,WeatherCatV1.10B1784,2013-01-04 23:37:00,
2013-01-04 18:42:00,24.9,19.0,30.10,West,275,11.0,11.0,78,0.00,,,0.00,WeatherCatV1.10B1784,2013-01-04 23:42:00,
2013-01-04 18:47:00,24.9,19.0,30.10,West,265,7.0,16.0,78,0.00,,,0.00,WeatherCatV1.10B1784,2013-01-04 23:47:00,
2013-01-04 18:52:00,24.9,19.0,30.11,West,273,11.0,14.0,78,0.00,,,0.00,WeatherCatV1.10B1784,2013-01-04 23:52:00,
2013-01-04 18:57:00,24.9,19.0,30.11,WSW,237,5.0,12.0,78,0.00,,,0.00,WeatherCatV1.10B1784,2013-01-04 23:57:00,
2013-01-04 19:02:00,24.8,19.2,30.12,West,259,9.0,12.0,79,0.00,,,0.00,WeatherCatV1.10B1784,2013-01-05 00:02:00,
2013-01-04 19:07:00,24.8,19.2,30.12,West,263,4.0,12.0,79,0.00,,,0.00,WeatherCatV1.10B1784,2013-01-05 00:07:00,
2013-01-04 19:12:00,24.8,19.2,30.12,West,262,8.0,9.0,79,0.00,,,0.00,WeatherCatV1.10B1784,2013-01-05 00:12:00,
2013-01-04 19:17:00,24.8,19.5,30.12,WSW,254,4.0,9.0,80,0.00,,,0.00,WeatherCatV1.10B1784,2013-01-05 00:17:00,
2013-01-04 19:22:00,24.8,19.5,30.12,West,263,5.0,15.0,80,0.00,,,0.00,WeatherCatV1.10B1784,2013-01-05 00:22:00,
2013-01-04 19:27:00,24.7,19.4,30.12,West,279,13.0,15.0,80,0.00,,,0.00,WeatherCatV1.10B1784,2013-01-05 00:27:00,
2013-01-04 19:32:00,24.8,19.5,30.12,WSW,257,4.0,11.0,80,0.00,,,0.00,WeatherCatV1.10B1784,2013-01-05 00:32:00,
2013-01-04 19:37:00,24.8,19.5,30.12,West,265,7.0,10.0,80,0.00,,,0.00,WeatherCatV1.10B1784,2013-01-05 00:37:00,
2013-01-04 19:42:00,24.8,19.8,30.12,WSW,246,4.0,5.0,81,0.00,,,0.00,WeatherCatV1.10B1784,2013-01-05 00:42:00,
2013-01-04 19:47:00,24.8,19.8,30.12,West,260,6.0,13.0,81,0.00,,,0.00,WeatherCatV1.10B1784,2013-01-05 00:47:00,
2013-01-04 19:52:00,24.9,19.9,30.12,West,261,7.0,11.0,81,0.00,,,0.00,WeatherCatV1.10B1784,2013-01-05 00:52:00,
2013-01-04 19:57:00,24.9,19.9,30.12,WSW,246,7.0,12.0,81,0.00,,,0.00,WeatherCatV1.10B1784,2013-01-05 00:57:00,
2013-01-04 20:02:00,25.0,20.0,30.13,West,263,10.0,11.0,81,0.00,,,0.00,WeatherCatV1.10B1784,2013-01-05 01:02:00,
2013-01-04 20:07:00,25.1,20.1,30.13,WSW,249,6.0,11.0,81,0.00,,,0.00,WeatherCatV1.10B1784,2013-01-05 01:07:00,
2013-01-04 20:12:00,25.1,20.4,30.13,West,266,8.0,13.0,82,0.00,,,0.00,WeatherCatV1.10B1784,2013-01-05 01:12:00,
2013-01-04 20:17:00,25.2,20.5,30.13,WSW,254,6.0,11.0,82,0.00,,,0.00,WeatherCatV1.10B1784,2013-01-05 01:17:00,
2013-01-04 20:22:00,25.3,20.6,30.13,WSW,255,6.0,11.0,82,0.00,,,0.00,WeatherCatV1.10B1784,2013-01-05 01:22:00,
2013-01-04 20:27:00,25.3,20.6,30.13,SW,232,3.0,10.0,82,0.00,,,0.00,WeatherCatV1.10B1784,2013-01-05 01:27:00,
2013-01-04 20:32:00,25.2,20.5,30.13,West,279,8.0,12.0,82,0.00,,,0.00,WeatherCatV1.10B1784,2013-01-05 01:32:00,
2013-01-04 20:37:00,25.3,20.6,30.13,WSW,248,12.0,12.0,82,0.00,,,0.00,WeatherCatV1.10B1784,2013-01-05 01:37:00,
2013-01-04 20:42:00,25.4,20.7,30.13,WSW,252,5.0,11.0,82,0.00,,,0.00,WeatherCatV1.10B1784,2013-01-05 01:42:00,
2013-01-04 20:47:00,25.3,20.6,30.13,West,263,6.0,9.0,82,0.00,,,0.00,WeatherCatV1.10B1784,2013-01-05 01:47:00,
2013-01-04 20:52:00,25.3,20.9,30.13,West,275,4.0,10.0,83,0.00,,,0.00,WeatherCatV1.10B1784,2013-01-05 01:52:00,
2013-01-04 20:57:00,25.4,21.0,30.13,West,259,4.0,13.0,83,0.00,,,0.00,WeatherCatV1.10B1784,2013-01-05 01:57:00,
2013-01-04 21:02:00,25.5,21.1,30.13,West,269,6.0,12.0,83,0.00,,,0.00,WeatherCatV1.10B1784,2013-01-05 02:02:00,
2013-01-04 21:07:00,25.4,21.0,30.13,West,265,6.0,13.0,83,0.00,,,0.00,WeatherCatV1.10B1784,2013-01-05 02:07:00,
2013-01-04 21:12:00,25.5,21.1,30.13,WSW,258,4.0,7.0,83,0.00,,,0.00,WeatherCatV1.10B1784,2013-01-05 02:12:00,
2013-01-04 21:17:00,25.5,21.1,30.14,West,259,4.0,9.0,83,0.00,,,0.00,WeatherCatV1.10B1784,2013-01-05 02:17:00,
2013-01-04 21:22:00,25.5,21.1,30.14,WSW,242,7.0,10.0,83,0.00,,,0.00,WeatherCatV1.10B1784,2013-01-05 02:22:00,
2013-01-04 21:27:00,25.5,21.1,30.14,West,277,6.0,12.0,83,0.00,,,0.00,WeatherCatV1.10B1784,2013-01-05 02:27:00,
2013-01-04 21:32:00,25.5,21.1,30.14,WSW,238,6.0,8.0,83,0.00,,,0.00,WeatherCatV1.10B1784,2013-01-05 02:32:00,
2013-01-04 21:37:00,25.6,21.2,30.14,SW,223,8.0,11.0,83,0.00,,,0.00,WeatherCatV1.10B1784,2013-01-05 02:37:00,
2013-01-04 21:42:00,25.6,21.2,30.14,WSW,253,7.0,11.0,83,0.00,,,0.00,WeatherCatV1.10B1784,2013-01-05 02:42:00,
2013-01-04 21:47:00,25.7,21.3,30.14,WSW,250,8.0,13.0,83,0.00,,,0.00,WeatherCatV1.10B1784,2013-01-05 02:47:00,
2013-01-04 21:52:00,25.8,21.4,30.14,WSW,253,5.0,10.0,83,0.00,,,0.00,WeatherCatV1.10B1784,2013-01-05 02:52:00,
2013-01-04 21:57:00,25.7,21.3,30.15,West,274,9.0,10.0,83,0.00,,,0.00,WeatherCatV1.10B1784,2013-01-05 02:57:00,
2013-01-04 22:02:00,25.6,21.2,30.14,West,280,8.0,9.0,83,0.00,,,0.00,WeatherCatV1.10B1784,2013-01-05 03:02:00,
2013-01-04 22:07:00,25.6,21.5,30.15,West,261,6.0,9.0,84,0.00,,,0.00,WeatherCatV1.10B1784,2013-01-05 03:07:00,
2013-01-04 22:12:00,25.6,21.5,30.15,WSW,255,6.0,13.0,84,0.00,,,0.00,WeatherCatV1.10B1784,2013-01-05 03:12:00,
2013-01-04 22:17:00,25.6,21.5,30.15,SW,224,7.0,11.0,84,0.00,,,0.00,WeatherCatV1.10B1784,2013-01-05 03:17:00,
2013-01-04 22:22:00,25.7,21.5,30.15,West,277,8.0,12.0,84,0.00,,,0.00,WeatherCatV1.10B1784,2013-01-05 03:22:00,
2013-01-04 22:27:00,25.6,21.5,30.15,West,275,5.0,9.0,84,0.00,,,0.00,WeatherCatV1.10B1784,2013-01-05 03:27:00,
2013-01-04 22:32:00,25.5,21.4,30.15,WSW,252,8.0,10.0,84,0.00,,,0.00,WeatherCatV1.10B1784,2013-01-05 03:32:00,
2013-01-04 22:37:00,25.6,21.5,30.15,SW,230,6.0,10.0,84,0.00,,,0.00,WeatherCatV1.10B1784,2013-01-05 03:37:00,
2013-01-04 22:42:00,25.7,21.5,30.15,WSW,240,4.0,8.0,84,0.00,,,0.00,WeatherCatV1.10B1784,2013-01-05 03:42:00,
2013-01-04 22:47:00,25.7,21.5,30.15,WSW,254,5.0,12.0,84,0.00,,,0.00,WeatherCatV1.10B1784,2013-01-05 03:47:00,
2013-01-04 22:52:00,25.6,21.5,30.15,WSW,245,6.0,9.0,84,0.00,,,0.00,WeatherCatV1.10B1784,2013-01-05 03:52:00,
2013-01-04 22:57:00,25.6,21.5,30.15,West,268,4.0,8.0,84,0.00,,,0.00,WeatherCatV1.10B1784,2013-01-05 03:57:00,
2013-01-04 23:02:00,25.6,21.5,30.15,WNW,288,9.0,12.0,84,0.00,,,0.00,WeatherCatV1.10B1784,2013-01-05 04:02:00,
2013-01-04 23:07:00,25.6,21.5,30.15,West,275,7.0,11.0,84,0.00,,,0.00,WeatherCatV1.10B1784,2013-01-05 04:07:00,
2013-01-04 23:12:00,25.6,21.5,30.16,WNW,284,6.0,7.0,84,0.00,,,0.00,WeatherCatV1.10B1784,2013-01-05 04:12:00,
2013-01-04 23:17:00,25.5,21.6,30.16,West,275,3.0,10.0,85,0.00,,,0.00,WeatherCatV1.10B1784,2013-01-05 04:17:00,
2013-01-04 23:22:00,25.6,21.5,30.16,WNW,288,8.0,9.0,84,0.00,,,0.00,WeatherCatV1.10B1784,2013-01-05 04:22:00,
2013-01-04 23:27:00,25.5,21.6,30.16,WSW,258,7.0,12.0,85,0.00,,,0.00,WeatherCatV1.10B1784,2013-01-05 04:27:00,
2013-01-04 23:32:00,25.6,21.5,30.17,WNW,291,6.0,7.0,84,0.00,,,0.00,WeatherCatV1.10B1784,2013-01-05 04:32:00,
2013-01-04 23:37:00,25.5,21.6,30.17,WNW,285,5.0,12.0,85,0.00,,,0.00,WeatherCatV1.10B1784,2013-01-05 04:37:00,
2013-01-04 23:42:00,25.5,21.6,30.17,SW,219,6.0,10.0,85,0.00,,,0.00,WeatherCatV1.10B1784,2013-01-05 04:42:00,
2013-01-04 23:47:00,25.6,21.7,30.17,WNW,294,5.0,9.0,85,0.00,,,0.00,WeatherCatV1.10B1784,2013-01-05 04:47:00,
2013-01-04 23:52:00,25.4,21.3,30.17,West,261,5.0,10.0,84,0.00,,,0.00,WeatherCatV1.10B1784,2013-01-05 04:52:00,
2013-01-04 23:57:00,25.2,21.3,30.17,West,275,4.0,8.0,85,0.00,,,0.00,WeatherCatV1.10B1784,2013-01-05 04:57:00,